Weather History for Madisonville, KY

Change the Weather History Date:

Saturday, February 15, 2014

  Actual Average (KOWB) Record (KOWB)
Temperature  
Mean Temperature 24 °F -  
Max Temperature 32 °F 46 °F 72 °F (1954)
Min Temperature 16 °F 28 °F -1 °F (1986)
Degree Days  
Heating Degree Days 41    
Moisture  
Dew Point 18 °F    
Average Humidity 73    
Maximum Humidity 83    
Minimum Humidity 60    
Precipitation  
Precipitation 0.00 in - - ()
Sea Level Pressure  
Sea Level Pressure 30.12 in    
Wind  
Wind Speed 7 mph (West)    
Max Wind Speed 18 mph    
Max Gust Speed 23 mph    
Visibility 10 miles    
Events      
Averages and records for this station are not official NWS values.
T = Trace of Precipitation, MM = Missing Value Source: NWS Daily Summary

Daily Weather History Graph

Daily Weather History Graph

Search for Another Location

Airport:

Trip Planner

Search our weather history database for the weather conditions in past years. The results will help you decide how hot, cold, wet, or windy it might be!

Date:

Astronomy

Feb. 15, 2014 Rise Set
Actual Time 6:38 AM CST 5:29 PM CST
Civil Twilight 6:11 AM CST 5:56 PM CST
Nautical Twilight 5:41 AM CST 6:26 PM CST
Astronomical Twilight 5:11 AM CST 6:56 PM CST
Moon 6:26 PM CST (2/15) 6:39 AM CST (2/15)
Length of Visible Light 11h 44m
Length of Day
10h 50m
Waxing Gibbous, 99% of the Moon is Illuminated
Feb 15
Waxing Gibbous
Feb 22
Last Quarter
Mar 1
New
Mar 8
First Quarter
Mar 16
Full

Hourly Weather History & Observations

Time (CST) Temp. Windchill Dew Point Humidity Pressure Visibility Wind Dir Wind Speed Gust Speed Precip Events Conditions
12:15 AM 23.0 °F 11.7 °F 17.4 °F 79% 30.01 in 10.0 mi NNW 11.5 mph 23.0 mph N/A   Overcast
12:35 AM 22.8 °F 8.5 °F 16.3 °F 76% 30.01 in 10.0 mi North 18.4 mph 23.0 mph N/A   Overcast
12:55 AM 22.5 °F 11.1 °F 16.5 °F 78% 30.02 in 10.0 mi NNW 11.5 mph 20.7 mph N/A   Overcast
1:15 AM 21.9 °F 8.7 °F 15.6 °F 77% 30.02 in 10.0 mi NNW 15.0 mph 21.9 mph N/A   Overcast
1:35 AM 21.7 °F 7.1 °F 15.3 °F 76% 30.03 in 10.0 mi NNW 18.4 mph - N/A   Overcast
1:55 AM 21.2 °F 8.3 °F 15.3 °F 78% 30.04 in 10.0 mi NNW 13.8 mph - N/A   Overcast
2:15 AM 21.0 °F 8.1 °F 14.9 °F 77% 30.05 in 10.0 mi NNW 13.8 mph 20.7 mph N/A   Overcast
2:35 AM 20.3 °F 6.6 °F 13.8 °F 76% 30.06 in 10.0 mi North 15.0 mph - N/A   Overcast
2:55 AM 20.3 °F 9.0 °F 14.4 °F 78% 30.07 in 10.0 mi NNW 10.4 mph 18.4 mph N/A   Overcast
3:15 AM 19.9 °F 9.3 °F 13.8 °F 77% 30.08 in 10.0 mi NW 9.2 mph - N/A   Overcast
3:35 AM 19.8 °F 8.3 °F 14.2 °F 79% 30.09 in 10.0 mi NW 10.4 mph 16.1 mph N/A   Overcast
3:55 AM 19.0 °F 7.5 °F 13.6 °F 79% 30.10 in 10.0 mi NNW 10.4 mph 17.3 mph N/A   Overcast
4:15 AM 18.5 °F 10.4 °F 13.1 °F 79% 30.11 in 10.0 mi NNW 5.8 mph - N/A   Mostly Cloudy
4:35 AM 18.1 °F 10.0 °F 13.1 °F 81% 30.12 in 10.0 mi NNW 5.8 mph - N/A   Scattered Clouds
4:55 AM 17.6 °F 8.2 °F 12.7 °F 81% 30.12 in 10.0 mi NNW 6.9 mph - N/A   Clear
5:15 AM 17.4 °F 10.4 °F 12.6 °F 81% 30.13 in 10.0 mi NW 4.6 mph - N/A   Clear
5:35 AM 17.1 °F 11.7 °F 12.2 °F 81% 30.14 in 10.0 mi NNW 3.5 mph - N/A   Clear
5:55 AM 16.7 °F 8.3 °F 12.2 °F 82% 30.15 in 10.0 mi NW 5.8 mph - N/A   Clear
6:15 AM 16.7 °F 11.2 °F 12.0 °F 82% 30.15 in 10.0 mi NW 3.5 mph - N/A   Clear
6:35 AM 16.5 °F 9.4 °F 11.7 °F 81% 30.15 in 10.0 mi NNW 4.6 mph - N/A   Clear
6:55 AM 16.2 °F - 11.5 °F 82% 30.15 in 10.0 mi Calm Calm - N/A   Clear
7:15 AM 16.2 °F - 11.8 °F 83% 30.16 in 10.0 mi Calm Calm - N/A   Clear
7:35 AM 16.5 °F - 11.8 °F 82% 30.17 in 10.0 mi Calm Calm - N/A   Clear
7:55 AM 16.9 °F - 11.3 °F 79% 30.17 in 10.0 mi Calm Calm - N/A   Clear
8:15 AM 17.6 °F - 11.8 °F 78% 30.20 in 10.0 mi Calm Calm - N/A   Clear
8:35 AM 18.3 °F - 12.6 °F 78% 30.20 in 10.0 mi Calm Calm - N/A   Clear
8:55 AM 18.9 °F - 12.4 °F 76% 30.20 in 10.0 mi Calm Calm - N/A   Clear
9:15 AM 19.6 °F - 12.7 °F 75% 30.21 in 10.0 mi Calm Calm - N/A   Clear
9:35 AM 20.1 °F - 13.5 °F 75% 30.20 in 10.0 mi Calm Calm - N/A   Clear
9:55 AM 20.7 °F - 13.6 °F 74% 30.20 in 10.0 mi Calm Calm - N/A   Clear
10:15 AM 21.2 °F - 13.8 °F 73% 30.21 in 10.0 mi Calm Calm - N/A   Clear
10:35 AM 22.6 °F 16.5 °F 14.7 °F 72% 30.23 in 10.0 mi West 4.6 mph - N/A   Clear
10:55 AM 23.4 °F - 14.7 °F 70% 30.22 in 10.0 mi Calm Calm - N/A   Clear
11:15 AM 24.3 °F - 15.6 °F 70% 30.21 in 10.0 mi Calm Calm - N/A   Clear
11:35 AM 25.2 °F - 16.3 °F 69% 30.20 in 10.0 mi Calm Calm - N/A   Clear
11:55 AM 26.2 °F - 16.7 °F 67% 30.20 in 10.0 mi Calm Calm - N/A   Clear
12:15 PM 27.0 °F - 17.4 °F 67% 30.20 in 10.0 mi Calm Calm - N/A   Clear
12:35 PM 28.2 °F - 18.0 °F 65% 30.19 in 10.0 mi Calm Calm - N/A   Clear
12:55 PM 29.3 °F 25.6 °F 18.5 °F 64% 30.18 in 10.0 mi West 3.5 mph - N/A   Clear
1:15 PM 29.1 °F - 18.1 °F 64% 30.17 in 10.0 mi Calm Calm - N/A   Clear
1:35 PM 29.8 °F - 19.0 °F 64% 30.17 in 10.0 mi Calm Calm - N/A   Clear
1:55 PM 30.7 °F 27.3 °F 19.2 °F 62% 30.17 in 10.0 mi WNW 3.5 mph - N/A   Clear
2:15 PM 30.6 °F - 18.7 °F 61% 30.16 in 10.0 mi Calm Calm - N/A   Clear
2:35 PM 30.9 °F - 18.5 °F 60% 30.16 in 10.0 mi Calm Calm - N/A   Mostly Cloudy
2:55 PM 30.9 °F - 18.3 °F 60% 30.17 in 10.0 mi Calm Calm - N/A   Overcast
3:15 PM 31.1 °F - 19.4 °F 62% 30.16 in 10.0 mi Calm Calm - N/A   Overcast
3:35 PM 31.8 °F 26.2 °F 19.9 °F 62% 30.13 in 10.0 mi SE 5.8 mph - N/A   Overcast
3:55 PM 32.0 °F 28.7 °F 20.7 °F 63% 30.13 in 10.0 mi SSE 3.5 mph - N/A   Overcast
4:15 PM 31.8 °F 28.5 °F 20.3 °F 62% 30.13 in 10.0 mi South 3.5 mph - N/A   Overcast
4:35 PM 31.8 °F 27.3 °F 20.7 °F 63% 30.11 in 10.0 mi SSE 4.6 mph - N/A   Overcast
4:55 PM 31.8 °F 26.2 °F 21.7 °F 66% 30.10 in 10.0 mi SE 5.8 mph - N/A   Overcast
5:15 PM 31.8 °F 27.3 °F 22.1 °F 67% 30.12 in 10.0 mi SSW 4.6 mph - N/A   Overcast
5:35 PM 31.8 °F 26.2 °F 23.0 °F 70% 30.12 in 10.0 mi South 5.8 mph - N/A   Overcast
5:55 PM 31.5 °F 24.9 °F 22.5 °F 69% 30.10 in 10.0 mi South 6.9 mph - N/A   Overcast
6:15 PM 31.3 °F 24.7 °F 22.5 °F 70% 30.10 in 10.0 mi South 6.9 mph - N/A   Overcast
6:35 PM 31.3 °F 25.6 °F 22.8 °F 71% 30.11 in 10.0 mi South 5.8 mph - N/A   Overcast
6:55 PM 31.1 °F 25.4 °F 23.0 °F 72% 30.09 in 10.0 mi SSE 5.8 mph - N/A   Overcast
7:15 PM 31.3 °F 24.7 °F 23.5 °F 73% 30.09 in 10.0 mi South 6.9 mph - N/A   Overcast
7:35 PM 31.5 °F 28.1 °F 23.7 °F 73% 30.10 in 10.0 mi South 3.5 mph - N/A   Overcast
7:55 PM 31.3 °F - 23.9 °F 74% 30.09 in 10.0 mi Calm Calm - N/A   Overcast
8:15 PM 31.5 °F - 23.9 °F 74% 30.08 in 10.0 mi Calm Calm - N/A   Overcast
8:35 PM 31.5 °F 26.8 °F 24.3 °F 75% 30.10 in 10.0 mi SSW 4.6 mph - N/A   Overcast
8:55 PM 31.5 °F 28.1 °F 24.3 °F 75% 30.09 in 10.0 mi South 3.5 mph - N/A   Overcast
9:15 PM 31.1 °F - 24.1 °F 75% 30.07 in 10.0 mi Calm Calm - N/A   Overcast
9:35 PM 31.5 °F 26.8 °F 24.3 °F 75% 30.07 in 10.0 mi SE 4.6 mph - N/A   Overcast
9:55 PM 31.5 °F 28.1 °F 24.6 °F 76% 30.04 in 10.0 mi SSE 3.5 mph - N/A   Overcast
10:15 PM 31.5 °F 28.1 °F 24.8 °F 76% 30.06 in 10.0 mi SSW 3.5 mph - N/A   Overcast
10:35 PM 31.6 °F 28.3 °F 24.8 °F 76% 30.05 in 10.0 mi South 3.5 mph - N/A   Overcast
10:55 PM 31.8 °F - 25.2 °F 76% 30.04 in 10.0 mi Calm Calm - N/A   Overcast
11:15 PM 31.6 °F - 25.5 °F 78% 30.04 in 10.0 mi Calm Calm - N/A   Overcast
11:35 PM 31.8 °F - 25.5 °F 78% 30.04 in 10.0 mi Calm Calm - N/A   Overcast
11:55 PM 31.8 °F - 25.9 °F 79% 30.03 in 10.0 mi Calm Calm - N/A   Overcast